Location: ?????
(37.7324°N, 23.9257°E)
Time: 07:12:48
(UTC+00:00)

ATLAS CENTAUR R/B - Pass Details

Date: 29 November 2020
Orbit: 477 x 668 km, 64.7° (Epoch: 12 January)

Event Time Altitude Azimuth Distance (km) Brightness Sun altitude
Exits shadow 04:32:33 - 326° (NNW) 1,909 3.6 -9.3°
Reaches altitude 10° 04:33:01 10° 326° (NW) 1,716 3.4 -9.2°
Maximum altitude 04:36:50 76° 241° (WSW) 540 1.2 -8.5°
Drops below altitude 10° 04:40:51 10° 155° (SSE) 1,803 4.7 -7.7°
Sets 04:43:07 0° 154° (SSE) 2,727 5.7 -7.3°
